Temp
-13 -12 -12 -12 -13 -12 -12 -12 -11 -11 -11 -14 -15 -12 -9 -10 -10 -12 -12 -12 -12 -11 -12 -11 -11 -10 -10 -9 -9 -9 -9 -10 -10 -9 -10 -10 -10 -10 -10 -10 -10 -10 -10 -11
-13 -12 -13 -13 -12 -12 -12 -12 -12 -11 -11 -15 -16 -15 -10 -10 -10 -10 -11 -12 -11 -12 -11 -11 -11 -10 -10 -9 -8 -9 -9 -10 -9 -9 -10 -10 -10 -9 -10 -10 -10 -10 -10 -11
-13 -14 -15 -15 -14 -13 -12 -12 -12 -12 -12 -15 -12 -15 -11 -11 -11 -10 -10 -11 -11 -11 -12 -12 -11 -11 -11 -10 -9 -9 -10 -10 -9 -9 -9 -9 -9 -9 -9 -10 -10 -10 -10 -11
-15 -17 -18 -18 -18 -18 -16 -15 -15 -13 -14 -16 -12 -16 -11 -11 -11 -11 -10 -11 -11 -11 -11 -10 -11 -11 -10 -10 -10 -9 -9 -9 -9 -9 -9 -9 -9 -9 -9 -10 -10 -10 -10 -11
-19 -21 -22 -22 -22 -22 -22 -22 -21 -18 -17 -15 -15 -17 -15 -11 -11 -11 -11 -11 -11 -10 -10 -10 -10 -10 -10 -10 -9 -9 -9 -9 -9 -9 -9 -9 -9 -9 -9 -10 -10 -10 -10 -11
-22 -22 -22 -21 -21 -21 -21 -22 -22 -22 -21 -21 -16 -17 -16 -14 -13 -14 -13 -11 -11 -10 -10 -10 -10 -10 -10 -9 -9 -9 -9 -9 -9 -9 -9 -9 -9 -9 -10 -10 -10 -10 -11 -11
-22 -22 -22 -21 -21 -22 -22 -23 -22 -21 -21 -20 -19 -18 -16 -15 -15 -15 -15 -13 -11 -10 -10 -9 -9 -9 -9 -9 -9 -8 -9 -9 -9 -9 -9 -9 -9 -9 -9 -10 -10 -10 -11 -11
-22 -22 -21 -21 -21 -22 -22 -22 -21 -21 -20 -20 -19 -18 -17 -15 -15 -15 -14 -12 -11 -10 -10 -9 -9 -8 -8 -8 -8 -8 -8 -9 -9 -9 -9 -9 -9 -9 -9 -10 -10 -11 -11 -11
-22 -22 -22 -22 -21 -22 -23 -22 -21 -21 -19 -19 -18 -17 -18 -16 -16 -14 -14 -12 -11 -10 -10 -9 -8 -8 -8 -9 -8 -9 -8 -8 -9 -9 -9 -9 -9 -9 -10 -10 -10 -11 -11 -10
-23 -22 -22 -22 -22 -21 -22 -22 -21 -21 -21 -20 -18 -17 -17 -17 -16 -16 -14 -12 -11 -10 -10 -9 -8 -8 -9 -9 -8 -8 -9 -9 -9 -9 -9 -9 -9 -10 -10 -10 -11 -11 -10 -10
-23 -23 -22 -22 -22 -21 -22 -23 -22 -22 -21 -20 -19 -17 -16 -16 -16 -15 -14 -12 -11 -10 -10 -9 -9 -9 -9 -9 -9 -9 -9 -9 -9 -9 -9 -9 -9 -10 -10 -10 -10 -10 -10 -10
-23 -23 -22 -22 -22 -21 -21 -21 -21 -21 -20 -20 -18 -18 -17 -16 -16 -16 -14 -12 -11 -10 -10 -10 -10 -9 -9 -9 -9 -9 -9 -9 -9 -9 -9 -9 -10 -10 -10 -10 -10 -10 -10 -10
-23 -23 -23 -22 -21 -21 -21 -21 -22 -22 -21 -19 -19 -17 -16 -16 -16 -15 -14 -13 -11 -11 -11 -11 -10 -9 -9 -9 -9 -9 -9 -9 -9 -9 -9 -10 -10 -10 -10 -10 -10 -10 -10 -10
-23 -23 -23 -22 -22 -22 -22 -22 -22 -22 -21 -19 -20 -18 -16 -16 -17 -16 -14 -13 -11 -12 -12 -11 -11 -10 -9 -9 -9 -9 -9 -9 -9 -9 -9 -10 -10 -10 -10 -10 -10 -10 -10 -10
-22 -23 -22 -22 -23 -23 -23 -23 -22 -21 -21 -20 -20 -19 -17 -17 -18 -18 -14 -12 -12 -12 -12 -11 -12 -11 -10 -10 -10 -10 -9 -9 -9 -9 -10 -10 -10 -10 -10 -10 -10 -10 -10 -11
-22 -22 -22 -22 -22 -23 -23 -23 -23 -21 -21 -19 -20 -20 -19 -18 -17 -16 -14 -13 -12 -12 -12 -11 -11 -11 -10 -10 -10 -10 -10 -10 -10 -10 -10 -10 -10 -10 -10 -10 -10 -10 -10 -10
-22 -22 -22 -22 -23 -22 -22 -22 -22 -22 -22 -21 -19 -20 -21 -20 -19 -18 -14 -13 -13 -12 -12 -11 -12 -11 -11 -11 -10 -10 -10 -10 -10 -10 -10 -10 -10 -10 -10 -10 -10 -10 -10 -11
-21 -21 -22 -21 -22 -21 -22 -21 -21 -21 -21 -20 -20 -20 -19 -20 -19 -16 -14 -13 -13 -12 -12 -11 -11 -11 -11 -11 -11 -10 -10 -10 -10 -10 -10 -10 -10 -10 -10 -10 -10 -10 -11 -11
-21 -21 -21 -21 -21 -21 -21 -21 -21 -21 -21 -21 -21 -20 -19 -18 -17 -15 -14 -13 -13 -12 -12 -12 -12 -11 -12 -11 -11 -11 -11 -11 -10 -10 -10 -10 -10 -10 -10 -10 -10 -11 -11 -11
-21 -21 -21 -21 -21 -21 -21 -21 -21 -21 -21 -21 -20 -20 -20 -18 -16 -18 -15 -14 -14 -12 -12 -12 -12 -11 -12 -11 -11 -11 -11 -11 -10 -10 -10 -10 -10 -10 -10 -10 -10 -10 -10 -11
-21 -21 -21 -21 -21 -21 -20 -21 -21 -21 -20 -20 -21 -20 -18 -17 -16 -15 -14 -13 -12 -12 -12 -12 -12 -12 -11 -11 -11 -11 -11 -11 -10 -10 -10 -10 -10 -10 -10 -10 -10 -10 -10 -11
-21 -21 -21 -21 -21 -21 -21 -20 -21 -21 -21 -20 -20 -19 -18 -17 -16 -15 -14 -13 -12 -12 -12 -12 -12 -12 -12 -12 -12 -11 -11 -11 -11 -10 -10 -10 -10 -10 -10 -10 -10 -10 -11 -11
-21 -21 -21 -21 -21 -21 -21 -20 -21 -20 -19 -20 -19 -19 -17 -16 -16 -14 -14 -13 -13 -12 -11 -12 -12 -12 -12 -12 -12 -11 -11 -11 -11 -10 -10 -10 -10 -10 -10 -10 -10 -10 -11 -11
-21 -21 -21 -21 -21 -21 -21 -20 -21 -20 -19 -19 -18 -18 -16 -16 -15 -14 -14 -13 -13 -13 -13 -13 -13 -12 -12 -12 -12 -11 -11 -11 -11 -10 -10 -10 -11 -10 -11 -11 -11 -11 -11 -11
-21 -21 -21 -21 -21 -21 -21 -20 -20 -20 -18 -18 -17 -17 -16 -15 -14 -14 -13 -13 -13 -13 -13 -13 -13 -12 -12 -12 -12 -12 -12 -11 -11 -11 -11 -11 -11 -11 -11 -11 -11 -11 -11 -11
-21 -21 -21 -21 -21 -21 -20 -19 -19 -19 -18 -18 -18 -17 -16 -14 -14 -13 -13 -12 -12 -12 -12 -13 -13 -13 -13 -12 -12 -12 -12 -11 -11 -11 -11 -11 -11 -11 -11 -11 -11 -11 -11 -12
Height
5697 5700 5699 5692 5689 5696 5698 5698 5703 5713 5722 5719 5723 5722 5739 5745 5748 5750 5756 5764 5771 5776 5784 5789 5789 5786 5797 5802 5807 5809 5809 5811 5809 5811 5810 5808 5808 5809 5807 5804 5802 5800 5798 5796
5681 5683 5673 5672 5674 5678 5681 5681 5689 5696 5703 5700 5706 5708 5721 5728 5732 5740 5746 5750 5757 5765 5772 5776 5776 5781 5787 5792 5799 5801 5800 5802 5802 5804 5804 5803 5802 5801 5800 5797 5796 5795 5792 5789
5660 5659 5655 5654 5654 5657 5663 5663 5670 5673 5681 5679 5693 5690 5703 5713 5718 5724 5733 5738 5743 5751 5760 5765 5764 5770 5777 5784 5789 5791 5791 5793 5794 5796 5796 5796 5794 5793 5792 5790 5790 5789 5785 5783
5643 5638 5637 5636 5635 5638 5638 5645 5644 5651 5655 5658 5682 5673 5688 5702 5707 5710 5722 5727 5732 5740 5744 5749 5761 5767 5770 5775 5778 5781 5784 5786 5786 5788 5789 5787 5786 5786 5785 5783 5784 5781 5779 5777
5628 5625 5626 5627 5627 5627 5626 5629 5629 5631 5634 5643 5653 5663 5673 5686 5690 5699 5708 5717 5722 5725 5736 5744 5750 5754 5762 5764 5767 5771 5775 5779 5778 5780 5781 5779 5779 5778 5778 5777 5777 5775 5772 5771
5619 5618 5618 5617 5617 5616 5614 5611 5615 5618 5623 5622 5635 5650 5663 5674 5681 5690 5696 5704 5710 5717 5724 5730 5737 5744 5751 5755 5760 5762 5767 5769 5772 5773 5773 5772 5772 5772 5772 5771 5770 5769 5767 5765
5613 5616 5612 5610 5609 5606 5605 5606 5606 5607 5608 5607 5626 5635 5648 5673 5675 5676 5686 5691 5699 5709 5714 5721 5726 5734 5740 5746 5749 5752 5758 5762 5765 5765 5765 5765 5766 5766 5765 5764 5763 5762 5761 5760
5606 5609 5605 5604 5603 5601 5599 5599 5601 5599 5604 5611 5619 5614 5627 5652 5658 5662 5674 5682 5688 5699 5707 5710 5717 5725 5732 5735 5737 5742 5749 5755 5757 5758 5758 5760 5760 5760 5759 5758 5757 5756 5756 5755
5601 5601 5599 5598 5596 5595 5595 5592 5594 5593 5596 5596 5603 5617 5629 5637 5648 5657 5664 5671 5680 5689 5696 5703 5710 5717 5723 5725 5729 5735 5741 5746 5748 5750 5751 5753 5753 5753 5753 5753 5752 5752 5751 5750
5596 5593 5594 5594 5592 5588 5586 5590 5590 5590 5589 5593 5596 5601 5620 5628 5641 5651 5661 5665 5672 5682 5687 5694 5701 5710 5714 5718 5724 5729 5734 5738 5740 5742 5745 5746 5747 5747 5748 5748 5748 5747 5746 5744
5591 5589 5590 5589 5588 5585 5586 5585 5587 5587 5587 5589 5597 5603 5615 5626 5633 5644 5652 5658 5664 5671 5679 5685 5694 5701 5706 5713 5718 5723 5727 5730 5733 5736 5739 5740 5741 5742 5743 5744 5743 5742 5740 5739
5586 5583 5583 5583 5587 5584 5582 5582 5584 5586 5590 5593 5592 5595 5607 5618 5625 5639 5640 5650 5659 5664 5671 5678 5686 5692 5700 5706 5712 5716 5720 5724 5728 5731 5733 5735 5736 5737 5738 5738 5738 5736 5735 5734
5582 5581 5578 5580 5581 5579 5579 5579 5581 5580 5583 5586 5592 5598 5608 5609 5619 5626 5632 5644 5652 5657 5664 5672 5679 5686 5693 5700 5706 5711 5715 5719 5723 5725 5728 5729 5731 5732 5733 5733 5732 5732 5730 5729
5578 5578 5575 5575 5571 5572 5575 5577 5578 5580 5581 5584 5587 5592 5601 5607 5616 5620 5624 5635 5644 5652 5660 5667 5674 5679 5686 5694 5699 5705 5710 5714 5717 5720 5723 5725 5726 5727 5728 5728 5727 5727 5725 5723
5575 5574 5572 5571 5569 5573 5574 5575 5575 5577 5578 5574 5577 5578 5583 5584 5604 5609 5613 5627 5636 5644 5654 5662 5669 5675 5682 5689 5695 5701 5706 5709 5713 5716 5718 5720 5722 5723 5724 5724 5723 5722 5720 5718
5574 5573 5571 5571 5570 5569 5570 5572 5572 5573 5574 5571 5569 5572 5581 5584 5592 5595 5607 5619 5628 5637 5647 5657 5665 5672 5679 5686 5692 5698 5702 5705 5709 5712 5714 5716 5718 5719 5720 5719 5718 5717 5716 5714
5574 5572 5569 5568 5568 5567 5567 5566 5566 5568 5571 5572 5566 5569 5574 5579 5582 5586 5601 5613 5622 5632 5643 5653 5662 5669 5676 5683 5689 5694 5698 5702 5705 5708 5710 5713 5714 5715 5715 5715 5714 5713 5711 5709
5572 5568 5565 5563 5562 5562 5562 5559 5560 5562 5563 5564 5567 5564 5565 5567 5571 5583 5593 5605 5616 5626 5638 5648 5657 5666 5673 5679 5685 5690 5695 5699 5701 5704 5707 5709 5710 5710 5711 5711 5710 5708 5707 5706
5571 5566 5562 5561 5559 5558 5556 5554 5554 5554 5557 5556 5555 5559 5561 5566 5572 5580 5591 5602 5612 5624 5634 5644 5654 5661 5670 5677 5683 5688 5692 5695 5699 5702 5703 5705 5706 5707 5707 5707 5706 5705 5704 5703
5569 5566 5563 5560 5557 5554 5551 5550 5549 5549 5548 5548 5549 5552 5553 5558 5566 5577 5582 5596 5609 5619 5630 5640 5649 5658 5667 5674 5680 5685 5688 5692 5695 5698 5700 5702 5702 5703 5704 5703 5703 5702 5700 5699
5568 5564 5561 5557 5554 5551 5547 5545 5543 5542 5543 5541 5541 5542 5546 5552 5564 5568 5580 5594 5606 5618 5627 5638 5647 5657 5665 5672 5678 5682 5685 5689 5692 5694 5697 5698 5699 5701 5700 5700 5699 5698 5697 5695
5566 5562 5559 5555 5551 5548 5544 5540 5537 5535 5533 5531 5532 5534 5539 5547 5555 5566 5580 5595 5607 5616 5624 5635 5645 5655 5663 5671 5675 5679 5683 5686 5689 5692 5694 5695 5697 5697 5697 5697 5696 5695 5694 5692
5565 5562 5557 5553 5548 5543 5537 5533 5529 5524 5521 5521 5523 5527 5532 5540 5553 5565 5578 5588 5601 5613 5623 5633 5643 5653 5661 5667 5672 5676 5680 5683 5686 5689 5691 5692 5694 5694 5694 5694 5693 5691 5689 5688
5560 5556 5553 5549 5545 5537 5531 5527 5521 5515 5514 5513 5517 5522 5527 5540 5550 5563 5574 5586 5599 5610 5622 5633 5643 5650 5659 5665 5670 5674 5677 5680 5684 5687 5688 5690 5691 5692 5692 5691 5690 5688 5687 5686
5556 5552 5549 5545 5537 5530 5523 5519 5515 5511 5509 5509 5512 5516 5525 5539 5551 5562 5574 5586 5597 5609 5620 5631 5640 5650 5657 5663 5667 5671 5675 5678 5682 5684 5686 5687 5689 5689 5689 5689 5687 5686 5685 5685
5553 5550 5545 5539 5533 5523 5517 5513 5508 5507 5505 5505 5508 5514 5522 5537 5552 5565 5576 5589 5600 5611 5621 5629 5639 5647 5654 5660 5665 5669 5672 5676 5680 5682 5684 5686 5687 5687 5687 5687 5685 5684 5684 5685
Wind_Speed
50 52 55 59 58 59 64 68 70 65 61 54 46 62 62 59 61 68 70 67 68 60 60 59 62 68 59 57 54 50 45 46 46 49 51 53 52 45 40 42 39 40 38 34
49 51 56 60 61 64 67 69 70 71 69 54 47 57 68 63 64 61 66 73 73 70 61 66 70 65 61 57 54 49 48 48 48 51 54 54 54 47 43 43 38 41 36 34
54 55 53 55 60 65 69 73 75 73 72 63 70 60 71 70 64 64 62 68 74 72 69 69 70 67 62 58 56 53 52 49 50 56 55 53 50 46 42 38 37 39 33 36
57 49 46 48 52 54 63 63 67 75 74 66 73 61 72 68 69 67 61 61 64 72 73 76 70 69 68 63 60 55 51 47 53 55 54 48 44 43 36 35 36 35 35 37
35 29 29 32 31 34 40 42 45 62 71 72 69 57 58 68 69 69 64 59 59 62 64 67 67 66 59 59 58 56 54 49 55 54 49 42 40 32 31 33 34 34 35 34
18 22 25 27 27 31 37 38 39 42 44 52 67 57 51 55 58 50 52 62 61 59 55 61 70 68 66 63 60 61 51 52 53 49 40 32 28 31 29 33 34 32 32 30
27 13 23 22 25 29 23 22 28 34 45 54 49 60 57 36 37 41 42 51 56 53 53 49 57 64 61 62 64 60 52 55 49 39 31 27 28 28 29 32 31 31 28 28
22 19 22 17 18 19 22 22 30 32 33 41 39 57 62 50 27 38 43 52 55 48 44 45 46 51 50 50 52 54 54 51 37 30 28 28 27 26 30 30 29 30 28 28
22 20 20 11 21 23 18 31 17 31 31 38 39 36 44 57 50 41 29 46 51 45 44 42 45 43 40 39 39 41 44 36 30 29 27 26 24 27 27 27 28 28 29 27
19 26 15 16 17 21 22 20 21 29 29 27 31 28 38 37 39 42 36 35 45 42 44 42 41 36 38 37 36 35 32 30 29 26 25 23 25 26 26 25 27 28 27 27
18 19 18 17 17 11 13 20 25 22 28 23 15 14 30 38 37 40 33 37 34 42 43 41 38 36 36 33 32 31 30 29 27 25 24 23 26 26 25 25 27 25 26 27
19 17 14 17 19 16 7 11 22 24 26 27 20 26 20 36 30 35 44 46 35 39 44 41 40 39 35 35 33 30 29 27 26 25 23 24 26 24 24 25 25 23 27 26
18 15 19 11 15 18 15 15 15 28 24 35 24 12 10 38 38 41 55 49 41 45 39 34 34 39 39 35 33 31 29 27 25 22 22 25 24 24 24 23 22 25 25 24
18 14 18 16 20 16 13 16 22 22 24 39 31 13 25 20 28 32 51 55 48 39 32 26 27 35 38 35 33 32 28 25 22 22 23 24 24 23 21 20 22 22 23 21
8 8 12 12 15 10 17 16 11 24 24 36 38 35 32 37 30 32 48 52 53 50 40 31 28 32 35 33 30 27 24 23 21 21 21 22 22 19 19 20 20 21 19 18
4 6 8 9 9 13 15 17 20 20 21 48 45 45 25 27 38 50 54 50 47 51 44 36 33 33 34 30 26 24 23 21 19 18 20 20 19 18 19 19 19 20 18 17
5 7 9 8 10 15 4 11 18 21 21 24 56 45 34 31 41 49 50 52 49 41 42 41 35 32 30 26 24 23 21 18 16 17 18 18 17 17 18 18 19 18 18 16
22 20 17 11 15 17 13 17 19 24 24 23 28 50 58 48 50 42 48 52 46 41 46 46 44 32 27 27 24 21 18 15 16 16 16 16 17 17 17 18 17 17 16 16
14 15 17 20 10 12 9 10 11 20 20 27 35 34 49 59 45 48 48 49 48 38 48 45 42 37 31 27 25 19 18 16 16 16 15 16 17 17 16 16 16 15 15 15
20 17 14 14 14 16 14 6 9 16 18 24 26 23 30 43 52 41 49 50 50 44 48 47 44 39 31 29 26 20 19 18 16 15 15 17 16 16 15 15 15 15 14 14
19 18 18 16 17 17 19 15 22 22 14 16 19 21 33 47 49 53 53 49 46 48 49 47 43 36 29 29 26 20 20 18 15 15 16 16 15 15 14 15 13 12 14 14
19 20 21 22 19 20 17 19 23 23 21 18 22 23 31 41 51 54 48 46 48 49 50 47 44 37 29 28 23 22 20 17 15 15 15 16 14 14 15 13 13 13 14 13
20 21 21 24 26 26 22 17 20 26 24 18 21 26 33 48 49 53 50 51 55 54 50 49 43 36 30 27 22 22 18 17 15 15 16 14 13 14 13 10 13 14 13 12
22 21 22 26 27 28 20 17 26 24 14 17 23 24 39 46 53 53 51 54 56 56 52 45 39 35 29 26 21 21 19 15 15 15 15 13 12 14 10 11 12 12 8 5
23 24 25 27 30 30 25 18 11 11 12 19 23 27 35 50 57 54 57 54 55 54 49 43 39 33 27 23 21 20 17 14 15 16 14 12 12 12 10 10 8 6 6 7
22 24 26 25 32 33 21 9 6 11 12 17 19 25 33 53 62 56 52 46 41 43 43 40 37 33 29 24 22 21 16 15 16 16 13 11 11 10 9 9 7 7 8 8
Wind_Direction
265 261 258 255 256 254 253 253 255 250 247 249 238 251 244 242 239 238 232 237 234 238 239 242 246 249 250 254 258 266 271 273 277 285 291 293 295 296 295 295 298 301 300 308
271 267 266 262 260 256 255 256 252 251 248 235 241 242 245 242 241 237 240 236 235 233 235 236 244 250 251 255 262 266 269 272 274 281 288 291 292 289 291 293 296 296 300 303
280 277 274 271 267 262 256 254 252 250 242 240 242 240 241 241 241 239 236 240 240 236 235 237 240 246 253 259 264 264 268 272 274 282 287 287 288 286 288 291 292 293 300 298
286 285 275 267 263 261 258 254 251 245 238 237 238 244 242 242 244 243 238 240 243 241 238 239 243 248 251 255 259 262 263 269 277 282 286 286 283 283 283 287 292 297 297 294
291 265 256 268 269 265 263 260 259 248 236 234 228 236 240 238 240 242 242 238 240 243 244 244 243 245 248 250 255 260 266 268 273 282 284 280 279 273 278 286 290 294 294 293
289 268 282 270 266 279 278 261 257 252 246 236 230 226 235 237 239 242 248 240 236 239 243 240 242 245 248 253 257 256 258 266 271 279 275 271 264 272 279 284 289 291 289 285
249 272 276 286 268 284 263 263 246 242 236 232 228 226 221 225 229 224 226 233 238 237 241 247 243 242 245 254 254 251 256 261 269 267 259 256 264 273 280 284 287 286 280 279
270 256 278 264 292 294 251 232 249 237 233 234 233 228 220 201 210 233 232 234 235 237 235 238 238 238 245 252 249 247 248 254 255 247 250 255 265 273 281 285 283 279 276 279
272 266 276 288 288 289 263 260 241 230 219 222 219 243 231 226 211 220 223 233 230 230 230 232 236 237 241 238 236 238 245 246 237 241 248 259 267 277 279 278 275 275 277 281
272 264 277 281 295 294 244 239 248 233 250 251 217 205 207 216 214 221 224 231 228 225 225 226 230 229 229 234 238 239 240 231 235 242 251 258 268 271 269 268 272 273 277 286
284 273 257 273 291 314 277 231 245 226 230 234 235 215 199 222 219 189 196 212 217 219 219 221 220 220 225 229 228 230 225 230 237 244 249 258 263 263 261 265 270 273 285 285
272 281 274 262 284 291 267 203 243 216 217 226 220 191 171 200 192 198 206 217 214 211 211 218 216 215 214 218 220 222 224 232 237 242 251 257 256 254 255 265 270 281 284 282
284 284 283 247 233 274 273 229 253 228 213 202 207 172 107 206 207 200 205 207 211 200 197 203 211 217 213 213 214 218 226 231 235 244 249 250 249 253 257 266 275 282 282 287
291 271 273 251 240 292 308 219 226 226 218 200 209 183 175 161 196 199 201 203 202 203 209 196 198 207 207 207 211 217 223 227 235 240 244 247 249 250 259 268 278 280 286 291
296 286 260 247 266 271 281 266 247 222 239 215 211 220 175 165 188 215 194 199 208 215 214 202 197 199 200 204 210 216 220 225 230 236 243 245 245 253 260 271 276 281 286 293
288 263 265 275 283 269 267 265 257 244 236 205 217 218 223 210 194 204 192 194 204 212 210 198 187 192 197 200 204 208 215 219 226 237 240 239 247 251 265 271 277 282 285 292
267 260 265 276 256 260 250 234 246 248 243 229 218 222 227 235 211 208 194 201 205 202 203 198 188 192 195 196 198 205 212 216 230 233 236 243 246 256 268 271 276 280 282 285
304 306 281 271 265 279 225 238 244 228 222 238 232 224 216 220 215 190 190 197 200 203 193 195 195 192 196 190 192 198 204 221 228 230 239 248 247 263 266 270 277 278 277 280
343 337 305 293 315 314 332 312 240 251 249 240 237 231 220 219 204 188 192 194 196 192 192 195 197 201 198 192 193 200 203 218 228 236 244 247 254 261 264 271 273 274 276 280
338 344 341 340 310 310 328 291 278 291 260 252 255 247 223 209 201 198 192 190 193 191 191 196 202 196 197 191 197 207 208 217 230 241 245 245 256 260 265 271 271 275 284 280
335 335 335 332 320 316 315 285 308 313 291 266 237 237 219 209 200 199 197 193 191 187 192 198 201 198 199 194 203 215 211 217 231 241 240 249 254 259 266 269 272 279 279 273
344 340 336 336 329 327 312 291 288 295 288 274 234 224 213 208 201 198 195 190 191 190 192 196 198 200 204 199 206 212 211 218 233 243 243 248 253 261 268 271 270 279 276 265
332 329 334 334 324 323 321 310 292 292 290 268 224 220 208 204 198 195 193 188 190 191 192 194 198 201 203 203 210 207 210 221 234 238 242 245 252 264 271 268 273 290 273 269
328 326 326 326 325 316 323 320 309 304 291 228 208 213 207 199 193 192 189 187 190 192 194 194 199 202 201 203 205 207 212 222 234 236 240 243 253 265 272 273 280 284 252 237
326 324 324 327 327 327 322 314 336 292 257 230 209 206 201 195 186 176 175 182 188 192 194 197 197 200 203 208 203 210 213 223 232 235 235 242 256 266 272 268 269 262 214 182
317 319 316 324 328 337 354 333 277 222 239 229 218 207 193 192 185 171 170 175 182 189 193 190 198 198 204 207 203 211 212 223 226 229 229 244 259 265 266 258 261 238 201 187